Location: Albuquerque Trailhead
(34.7934°N, 106.3736°W)
Time: 02:27:18
(UTC+00:00)

Aureole 1 Rocket - Pass Details

Date: 20 June 2021
Orbit: 377 x 1372 km, 73.9° (Epoch: 27 July)

Event Time Altitude Azimuth Distance (km) Brightness Sun altitude
Rises 04:04:12 0° 347° (NNW) 3,524 8.0 -17.4°
Reaches altitude 10° 04:06:30 10° 351° (N) 2,715 7.2 -17.7°
Maximum altitude 04:12:56 61° 72° (ENE) 1,281 4.4 -18.6°
Enters shadow 04:17:03 29° 141° (SE) 2,086 5.1 -19.2°
